FW2418 Weather Reports


time (UTC)temp
F
wind
direction
speed
knots
gust
knots
rain 1hr
in
rain 24hr
in
rain mn
in
humidity
%
barometer
mb
20260506193157 93 176 2.6 6.1 0.00 0.00 0.00 38 1013.0
20260506192156 93 178 1.7 7.0 0.00 0.00 0.00 39 1013.0
20260506191155 93 234 1.7 7.0 0.00 0.00 0.00 42 1013.3
20260506190154 93 157 0.9 7.0 0.00 0.00 0.00 42 1013.3
20260506185153 92 201 1.7 5.2 0.00 0.00 0.00 42 1013.3
20260506184153 93 285 1.7 5.2 0.00 0.00 0.00 41 1013.7
20260506183120 93 183 0.9 5.2 0.00 0.00 0.00 42 1013.7
20260506182119 92 150 0.9 6.1 0.00 0.00 0.00 44 1013.7
20260506181118 93 152 0.9 6.1 0.00 0.00 0.00 45 1014.0
20260506180118 92 199 1.7 5.2 0.00 0.00 0.00 45 1014.0
20260506175117 92 19 1.7 7.0 0.00 0.00 0.00 45 1014.0
20260506174115 92 115 2.6 7.0 0.00 0.00 0.00 46 1014.3
20260506173115 91 143 1.7 5.2 0.00 0.00 0.00 48 1014.3
20260506172114 90 112 1.7 6.1 0.00 0.00 0.00 50 1014.3
20260506171113 90 256 0.9 6.1 0.00 0.00 0.00 50 1014.7
20260506170112 90 139 1.7 4.3 0.00 0.00 0.00 50 1014.7
20260506165111 89 183 2.6 5.2 0.00 0.00 0.00 50 1015.0
20260506164039 88 170 1.7 5.2 0.00 0.00 0.00 51 1015.0
20260506163007 88 155 0.9 7.0 0.00 0.00 0.00 51 1015.0
20260506161935 87 188 1.7 7.0 0.00 0.00 0.00 52 1015.0
20260506160934 87 159 1.7 5.2 0.00 0.00 0.00 53 1015.0
20260506155933 87 172 1.7 5.2 0.00 0.00 0.00 56 1015.4
20260506154932 86 177 0.9 6.1 0.00 0.00 0.00 57 1015.3
20260506153931 86 137 2.6 6.1 0.00 0.00 0.00 58 1015.3
20260506152930 85 176 0.9 7.0 0.00 0.00 0.00 63 1015.0
20260506151929 84 227 1.7 7.8 0.00 0.00 0.00 65 1015.0
20260506150856 84 165 1.7 7.8 0.00 0.00 0.00 65 1015.0
20260506145824 83 189 1.7 4.3 0.00 0.00 0.00 66 1015.0
20260506144823 83 177 1.7 7.0 0.00 0.00 0.00 69 1015.3
20260506143822 82 178 0.9 7.8 0.00 0.00 0.00 71 1015.0
20260506142750 81 140 1.7 6.1 0.00 0.00 0.00 72 1015.0
20260506141749 81 186 2.6 7.0 0.00 0.00 0.00 72 1015.0
20260506140748 80 181 3.5 6.1 0.00 0.00 0.00 75 1015.3
20260506135747 80 186 1.7 6.1 0.00 0.00 0.00 76 1015.0
20260506134746 79 184 2.6 6.1 0.00 0.00 0.00 78 1015.0
20260506133715 79 206 0.9 5.2 0.00 0.00 0.00 79 1015.0
20260506132713 78 160 0.9 4.3 0.00 0.00 0.00 80 1014.7
20260506131712 77 163 2.6 4.3 0.00 0.00 0.00 82 1015.0
20260506130711 76 163 1.7 4.3 0.00 0.00 0.00 84 1015.0
20260506125710 74 169 1.7 4.3 0.00 0.00 0.00 86 1014.7
20260506124709 73 182 1.7 2.6 0.00 0.00 0.00 89 1014.7
20260506123708 71 167 0.0 0.9 0.00 0.00 0.00 92 1014.7
20260506122707 70 156 0.0 0.0 0.00 0.00 0.00 93 1014.7
20260506121604 68 124 0.0 0.0 0.00 0.00 0.00 94 1014.6
20260506120603 66 124 0.0 0.0 0.00 0.00 0.00 97 1014.6
20260506115602 64 124 0.0 0.0 0.00 0.00 0.00 98 1014.3
20260506114601 63 124 0.0 0.0 0.00 0.00 0.00 98 1014.3
20260506113600 62 124 0.0 0.0 0.00 0.00 0.00 98 1014.3
20260506112559 61 124 0.0 0.0 0.00 0.00 0.00 97 1014.3
20260506111559 61 124 0.0 0.0 0.00 0.00 0.00 98 1014.0
20260506110558 60 124 0.0 0.0 0.00 0.00 0.00 97 1014.0
20260506105557 60 124 0.0 0.0 0.00 0.00 0.00 97 1013.6
20260506104556 60 124 0.0 0.0 0.00 0.00 0.00 97 1013.6
20260506103555 60 124 0.0 0.0 0.00 0.00 0.00 97 1013.6
20260506102554 60 124 0.0 0.0 0.00 0.00 0.00 97 1013.6
20260506101553 60 124 0.0 0.0 0.00 0.00 0.00 97 1013.6
20260506100553 60 124 0.0 0.0 0.00 0.00 0.00 97 1013.6
20260506095521 60 124 0.0 0.0 0.00 0.00 0.00 97 1013.6
20260506094520 60 124 0.0 0.0 0.00 0.00 0.00 96 1013.6
20260506093519 60 124 0.0 0.0 0.00 0.00 0.00 97 1013.3
20260506092518 60 124 0.0 0.0 0.00 0.00 0.00 97 1013.6
20260506091517 60 124 0.0 0.0 0.00 0.00 0.00 96 1013.3
20260506090516 60 124 0.0 0.0 0.00 0.00 0.00 96 1013.3
20260506085515 60 124 0.0 0.0 0.00 0.00 0.00 96 1013.3
20260506084515 60 124 0.0 0.0 0.00 0.00 0.00 96 1013.3
20260506083514 60 124 0.0 0.0 0.00 0.00 0.00 96 1013.3
20260506082513 60 124 0.0 0.0 0.00 0.00 0.00 96 1013.3
20260506081513 60 124 0.0 0.0 0.00 0.00 0.00 96 1013.3
20260506080441 60 124 0.0 0.0 0.00 0.00 0.00 96 1013.3
20260506073438 60 124 0.0 0.0 0.00 0.00 0.00 95 1013.6
20260506072437 60 124 0.0 0.0 0.00 0.00 0.00 95 1013.6
20260506071436 60 124 0.0 0.0 0.00 0.00 0.00 95 1013.3
20260506070435 61 124 0.0 0.0 0.00 0.00 0.00 95 1013.3
20260506062401 61 124 0.0 0.0 0.00 0.00 0.00 94 1014.0
20260506061400 62 124 0.0 0.0 0.00 0.00 0.00 94 1014.0
20260506060359 62 124 0.0 0.0 0.00 0.00 0.00 94 1014.0
20260506051252 63 124 0.0 0.0 0.00 0.00 0.00 91 1014.3
20260506050251 63 124 0.0 0.0 0.00 0.00 0.00 91 1014.3
20260506044249 64 124 0.0 0.0 0.00 0.00 0.00 89 1014.7
20260506043248 65 124 0.0 0.0 0.00 0.00 0.00 89 1014.7
20260506042216 65 124 0.0 0.0 0.00 0.00 0.00 88 1014.7
20260506041113 65 124 0.0 0.0 0.00 0.00 0.00 88 1014.7
20260506040112 65 124 0.0 0.0 0.00 0.00 0.00 87 1014.3
20260506035111 65 124 0.0 0.0 0.00 0.00 0.00 86 1014.3
20260506034111 66 124 0.0 0.0 0.00 0.00 0.00 86 1014.3
20260506033039 67 124 0.0 0.0 0.00 0.00 0.00 82 1014.0
20260506032038 67 124 0.0 0.0 0.00 0.00 0.00 83 1014.0
20260506031037 67 124 0.0 0.0 0.00 0.00 0.00 81 1014.0
20260506030036 68 124 0.0 0.0 0.00 0.00 0.00 80 1014.0
20260506025036 68 124 0.0 0.9 0.00 0.00 0.00 79 1014.0
20260506024004 68 139 0.0 0.9 0.00 0.00 0.00 79 1014.0
20260506023003 68 139 0.0 0.9 0.00 0.00 0.00 77 1014.0
20260506022003 69 139 0.0 0.9 0.00 0.00 0.00 76 1014.0
20260506021002 69 93 0.0 0.9 0.00 0.00 0.00 74 1014.0
20260506015929 69 93 0.9 0.9 0.00 0.00 0.00 73 1014.0
20260506014857 69 89 0.0 0.0 0.00 0.00 0.00 73 1014.0
20260506013825 70 89 0.0 0.0 0.00 0.00 0.00 71 1013.6
20260506012824 70 89 0.0 0.0 0.00 0.00 0.00 69 1014.0
20260506011823 71 89 0.0 0.9 0.00 0.00 0.00 67 1013.6
20260506010822 71 89 0.0 0.9 0.00 0.00 0.00 66 1013.6
20260506005821 72 89 0.0 0.9 0.00 0.00 0.00 65 1013.6
20260506004821 72 126 0.0 1.7 0.00 0.00 0.00 64 1013.3
20260506003820 73 125 0.9 1.7 0.00 0.00 0.00 63 1013.3
20260506002819 73 125 0.9 3.5 0.00 0.00 0.00 62 1013.0
20260506001818 74 115 0.9 3.5 0.00 0.00 0.00 61 1013.0
20260506000817 74 53 0.9 4.3 0.00 0.00 0.00 62 1012.9
20260505235745 75 114 1.7 4.3 0.00 0.00 0.00 61 1012.9
20260505234744 76 119 1.7 4.3 0.00 0.00 0.00 60 1012.9
20260505233743 76 80 1.7 5.2 0.00 0.00 0.00 58 1012.9
20260505232742 77 121 1.7 5.2 0.00 0.00 0.00 58 1012.9
20260505231639 77 81 0.9 6.1 0.00 0.00 0.00 56 1012.9
20260505230638 78 76 1.7 4.3 0.00 0.00 0.00 56 1012.9
20260505225638 78 131 1.7 7.0 0.00 0.00 0.00 56 1012.9
20260505224637 78 115 1.7 7.0 0.00 0.00 0.00 55 1012.9
20260505223636 79 122 1.7 6.1 0.00 0.00 0.00 55 1012.9
20260505222635 79 119 1.7 6.1 0.00 0.00 0.00 55 1012.9
20260505221634 79 88 2.6 5.2 0.00 0.00 0.00 54 1012.9
20260505220633 80 66 1.7 5.2 0.00 0.00 0.00 53 1012.9
20260505215632 80 51 2.6 6.1 0.00 0.00 0.00 53 1012.9
20260505214631 80 84 1.7 7.0 0.00 0.00 0.00 52 1012.9
20260505213631 81 77 2.6 6.1 0.00 0.00 0.00 53 1012.9
20260505212630 81 73 2.6 6.1 0.00 0.00 0.00 52 1012.9
20260505211629 82 38 2.6 6.1 0.00 0.00 0.00 52 1012.9
20260505210628 81 82 1.7 7.0 0.00 0.00 0.00 53 1012.6
20260505205627 82 57 2.6 6.1 0.00 0.00 0.00 52 1012.6
20260505204626 82 84 1.7 7.8 0.00 0.00 0.00 53 1012.6
20260505203625 81 45 2.6 7.0 0.00 0.00 0.00 53 1012.6
20260505202522 82 54 1.7 7.8 0.00 0.00 0.00 53 1012.9
20260505201521 82 52 1.7 7.0 0.00 0.00 0.00 52 1012.9
20260505200449 82 60 2.6 7.8 0.00 0.00 0.00 52 1013.3
20260505195448 83 44 3.5 7.8 0.00 0.00 0.00 52 1013.3
20260505194345 82 72 2.6 7.8 0.00 0.00 0.00 54 1013.3